[[{"header":{"parameterUnit":"m.s-1","parameterCategory":1,"la1":30.2991,"la2":30.254,"lo1":-89.0895,"lo2":-89.0444,"dx":0.0017,"dy":0.0017,"nx":28,"ny":28,"refTime":"2023-01-21T15:00:00:Z","depth":0,"parameterNumber":2,"parameterNumberName":"U-component_of_WINDS"},"data":[0,0,0,0,0,0,0,0,0,0,0,0,0,0,0,0,0,0,0,0,0,0,0,0,0,0,0,0,0,0,0,0,0,0,0,0,0,0,0,0,0,0,0,0,0,0,0,0,0,0,0,0,0,0,0,0,0,0,-3.6698,-3.6699,0,-3.6858,-3.686,-3.6861,-3.6793,-3.6789,-3.6785,-3.6782,-3.6947,-3.6955,-3.6963,0,0,0,0,0,0,0,0,0,0,0,0,0,-3.6333,-3.634,-3.6698,-3.67,-3.6702,-3.6858,-3.686,-3.6862,-3.6794,-3.6789,-3.6784,-3.678,-3.6944,-3.6954,-3.6963,0,0,0,0,0,0,0,0,0,0,0,0,0,-3.6492,-3.6342,-3.6697,-3.6686,-3.6687,-3.6857,-3.686,-3.6863,-3.6795,-3.6789,-3.6783,-3.6778,-3.6941,-3.6953,-3.6965,-3.7155,0,0,-3.7001,-3.7007,0,0,0,0,0,0,0,0,-3.6483,-3.6506,-3.6686,-3.6687,-3.6688,-3.68,-3.6792,-3.6961,-3.6796,-3.6754,-3.6782,-3.6775,-3.6903,-3.6918,-3.696,-3.7163,-3.717,-3.7002,-3.701,-3.7015,-3.7018,0,0,0,0,0,0,0,-3.6472,-3.6498,-3.6761,-3.6689,-3.669,-3.6674,-3.669,-3.6823,-3.6859,-3.6757,-3.6753,-3.6773,-3.6902,-3.6949,-3.6964,-3.7172,-3.7002,-3.7013,-3.702,-3.7025,-3.7539,-3.7546,0,0,0,0,0,0,-3.6461,-3.649,-3.6756,-3.6766,-3.6569,-3.6685,-3.6703,-3.677,-3.6857,-3.6865,-3.6777,-3.6769,-3.6931,-3.695,-3.6969,-3.7199,-3.7015,-3.7026,-3.7033,-3.7533,-3.7541,-3.7548,0,0,0,0,0,0,-3.6453,-3.6485,-3.6749,-3.6627,-3.6659,-3.6697,-3.6773,-3.6776,-3.6823,-3.6873,-3.6879,-3.6819,-3.6927,-3.6952,-3.7109,-3.7204,-3.7032,-3.7042,-3.7525,-3.7535,-3.7544,-3.7659,0,0,0,0,0,0,-3.6443,-3.6483,-3.6556,-3.6629,-3.6666,-3.6887,-3.6779,-3.6783,-3.6843,-3.6834,-3.6913,-3.692,-3.6925,-3.7092,-3.7121,-3.7217,-3.7052,-3.7517,-3.753,-3.7541,-3.7647,-3.7671,-3.7692,0,0,0,0,0,-3.6431,-3.6582,-3.656,-3.6593,-3.6758,-3.6893,-3.6914,-3.6916,-3.6851,-3.6925,-3.6957,-3.6918,-3.7188,-3.7109,-3.7141,-3.7242,-3.7511,-3.7526,-3.754,-3.7637,-3.7667,-3.7692,0,0,0,0,0,0,-3.652,-3.6591,-3.6568,-3.6747,-3.6815,-3.6881,-3.6974,-3.6947,-3.7034,-3.7022,-3.702,-3.7039,-3.7201,-3.7237,-3.7147,-3.7431,-3.734,-3.7362,-3.7402,-3.7431,-3.7453,-3.7442,-3.7062,0,0,0,0,0,-3.656,-3.6664,-3.6721,-3.6874,-3.6909,-3.6936,-3.6995,-3.699,-3.706,-3.7088,-3.7131,-3.7201,-3.7301,-3.7367,-3.7463,-3.7651,-3.7668,-3.7736,-3.7759,-3.7777,-3.7797,-3.79,-3.7931,-3.7596,-3.7596,-3.7595,0,0,-3.6646,-3.6697,-3.6763,-3.6893,-3.6945,-3.7053,-3.696,-3.7078,-3.7158,-3.7106,-3.7257,-3.7292,-3.7369,-3.7542,-3.7621,-3.7577,-3.7892,-3.7796,-3.781,-3.782,-3.7918,-3.7949,-3.7978,-3.7606,-3.7604,-3.7602,0,0,-3.6856,-3.6905,-3.7039,-3.7092,-3.7171,-3.7187,-3.7219,-3.729,-3.7311,-3.7462,-3.7425,-3.752,-3.7693,-3.775,-3.7801,-3.8032,-3.8,-3.8063,-3.8182,-3.8283,-3.8309,-3.8332,-3.8416,-3.8446,-3.8082,-3.8082,-3.8082,0,-3.6952,-3.7113,-3.711,-3.7232,-3.729,-3.7247,-3.7382,-3.7434,-3.754,-3.7581,-3.753,-3.7746,-3.7795,-3.7982,-3.8038,-3.8081,-3.8118,-3.8055,-3.8305,-3.8329,-3.8351,-3.843,-3.8462,-3.809,-3.8089,-3.8088,-3.8087,0,-3.7228,-3.734,-3.7438,-3.7542,-3.7611,-3.7738,-3.7755,-3.7825,-3.7814,-3.7836,-3.7991,-3.8048,-3.8154,-3.8197,-3.8188,-3.8383,-3.8354,-3.8304,-3.8213,-3.839,-3.8465,-3.8495,-3.81,-3.8097,-3.8095,-3.8093,0,0,-3.7502,-3.7601,-3.7637,-3.7684,-3.7767,-3.7854,-3.7979,-3.8082,-3.8143,-3.8217,-3.8323,-3.8469,-3.8424,-3.8482,-3.8479,-3.8566,-3.8747,-3.8506,-3.8508,-3.855,-3.8967,-3.9005,-3.9041,-3.8725,-3.8731,-3.8735,-3.8961,0,-3.7719,-3.7939,-3.794,-3.8143,-3.8247,-3.8206,-3.8315,-3.8378,-3.8402,-3.8494,-3.8519,-3.8624,-3.8555,-3.8591,-3.8675,-3.8707,-3.8831,-3.869,-3.8824,-3.8829,-3.8809,-3.908,-3.912,-3.9331,-3.899,-3.8995,-3.8999,0,-3.8004,-3.8087,-3.83,-3.8369,-3.8412,-3.851,-3.8605,-3.8693,-3.8763,-3.8774,-3.8839,-3.8822,-3.8949,-3.8853,-3.9029,-3.8934,-3.8988,-3.9012,-3.902,-3.9034,-3.8926,-3.9103,-3.9398,-3.943,-3.9044,-3.9041,-3.9037,0,-3.8184,-3.8349,-3.8498,-3.8539,-3.8622,-3.8692,-3.873,-3.8794,-3.8856,-3.8939,-3.8979,-3.9075,-3.9129,-3.9204,-3.9213,-3.9141,-3.9391,-3.9294,-3.9404,-3.9404,-3.9461,-3.9457,-3.977,-3.9493,-3.9492,-3.9491,-3.9491,0,-3.8428,-3.8561,-3.858,-3.8672,-3.8819,-3.8818,-3.8964,-3.8995,-3.9053,-3.9151,-3.9121,-3.9213,-3.9218,-3.9313,-3.9321,-3.9466,-3.949,-3.9503,-3.9504,-3.9507,-3.9506,-3.9544,-3.9531,-3.95,-3.9498,-3.9496,-3.9495,0,-3.8655,-3.8673,-3.8834,-3.8898,-3.8918,-3.9024,-3.9079,-3.9167,-3.9187,-3.9311,-3.9339,-3.9371,-3.9481,-3.9497,-3.9626,-3.9631,-3.9806,-3.9791,-3.9783,-3.9781,-3.989,-3.9881,-4.0241,-4.0288,-3.9978,-3.9981,-3.9983,0,-3.8811,-3.8912,-3.8988,-3.9051,-3.9092,-3.9194,-3.9257,-3.9259,-3.9326,-3.9414,-3.9491,-3.9598,-3.9683,-3.9861,-3.9896,-3.9994,-3.9982,-4.0101,-3.9997,-3.9997,-3.9986,-3.998,-3.9991,-4.0122,-4.0125,-4.0128,-4.013,0,-3.9087,-3.909,-3.9182,-3.9278,-3.9354,-3.9429,-3.95,-3.9553,-3.9564,-3.9641,-3.9753,-3.9819,-3.995,-4.0057,-4.0154,-4.0192,-4.0165,-4.0163,-4.0194,-4.0199,-4.0191,-4.0198,-3.984,-4.0155,-4.0153,-4.0151,-4.0149,-4.0148,-3.9284,-3.9372,-3.9439,-3.9542,-3.9596,-3.9662,-3.9748,-3.9779,-3.9872,-3.9979,-3.9974,-4.0097,-4.0164,-4.0292,-4.0337,-4.0434,-4.0395,-4.0439,-4.0451,-4.0463,-4.0474,-4.0174,-4.0451,-4.0451,-4.045,-4.0449,-4.0449,0,-3.9559,-3.96,-3.9695,-3.9795,-3.9876,-3.9841,-3.9917,-3.9988,-4.0097,-4.0162,-4.0246,-4.0375,-4.0478,-4.052,-4.0621,-4.069,-4.068,-4.0717,-4.0713,-4.0723,-4.0502,-4.0466,-4.0724,-4.0724,-4.0724,-4.0724,-4.0724,-4.0724,-3.9712,-3.9859,-3.9871,-4.0044,-4.0084,-4.0204,-4.0251,-4.0313,-4.0364,-4.0509,-4.0595,-4.0621,-4.0677,-4.0782,-4.0875,-4.0885,-4.0924,-4.0968,-4.0972,-4.0766,-4.0738,-4.0712,-4.0678,-4.0976,-4.0976,-4.1184,-4.1186,-4.1188]},{"header":{"parameterUnit":"m.s-1","parameterCategory":1,"la1":30.2991,"la2":30.254,"lo1":-89.0895,"lo2":-89.0444,"dx":0.0017,"dy":0.0017,"nx":28,"ny":28,"refTime":"2023-01-21T15:00:00:Z","depth":0,"parameterNumber":3,"parameterNumberName":"V-component_of_WINDS"},"data":[0,0,0,0,0,0,0,0,0,0,0,0,0,0,0,0,0,0,0,0,0,0,0,0,0,0,0,0,0,0,0,0,0,0,0,0,0,0,0,0,0,0,0,0,0,0,0,0,0,0,0,0,0,0,0,0,0,0,-2.6453,-2.6453,0,-2.6468,-2.6468,-2.6468,-2.643,-2.6429,-2.6428,-2.6427,-2.6441,-2.6443,-2.6444,0,0,0,0,0,0,0,0,0,0,0,0,0,-2.6392,-2.6394,-2.6453,-2.6453,-2.6454,-2.6468,-2.6468,-2.6468,-2.6431,-2.6429,-2.6428,-2.6426,-2.6441,-2.6443,-2.6445,0,0,0,0,0,0,0,0,0,0,0,0,0,-2.6414,-2.6394,-2.6453,-2.6437,-2.6435,-2.6468,-2.6468,-2.6468,-2.6431,-2.6429,-2.6427,-2.6426,-2.644,-2.6443,-2.6445,-2.6494,0,0,-2.6452,-2.6453,0,0,0,0,0,0,0,0,-2.6413,-2.6416,-2.6439,-2.6438,-2.6436,-2.6445,-2.6452,-2.6477,-2.6431,-2.6433,-2.6427,-2.6425,-2.6444,-2.6446,-2.6453,-2.6495,-2.6495,-2.6452,-2.6453,-2.6454,-2.6455,0,0,0,0,0,0,0,-2.6411,-2.6415,-2.6459,-2.6439,-2.6438,-2.6428,-2.6429,-2.6456,-2.6448,-2.6432,-2.643,-2.6432,-2.6443,-2.6451,-2.6453,-2.6495,-2.6452,-2.6454,-2.6455,-2.6456,-2.6578,-2.658,0,0,0,0,0,0,-2.6412,-2.6414,-2.6458,-2.6459,-2.642,-2.6431,-2.6432,-2.6444,-2.6448,-2.6446,-2.6433,-2.643,-2.6448,-2.645,-2.6453,-2.651,-2.6454,-2.6456,-2.6457,-2.6576,-2.6578,-2.658,0,0,0,0,0,0,-2.6411,-2.6416,-2.6458,-2.6436,-2.6441,-2.6434,-2.6448,-2.6445,-2.6453,-2.6448,-2.6447,-2.6442,-2.6446,-2.645,-2.6484,-2.651,-2.6457,-2.6459,-2.6574,-2.6577,-2.6579,-2.6626,0,0,0,0,0,0,-2.6409,-2.6416,-2.6435,-2.6437,-2.6442,-2.6489,-2.6449,-2.6447,-2.6457,-2.6453,-2.6457,-2.6455,-2.6445,-2.6481,-2.6486,-2.6512,-2.6461,-2.6571,-2.6575,-2.6578,-2.6622,-2.663,-2.6637,0,0,0,0,0,-2.6407,-2.6447,-2.6436,-2.6442,-2.6465,-2.649,-2.6493,-2.6481,-2.6459,-2.6478,-2.6475,-2.6455,-2.6507,-2.6485,-2.649,-2.6518,-2.6569,-2.6574,-2.6578,-2.6618,-2.6628,-2.6636,0,0,0,0,0,0,-2.6449,-2.6447,-2.6435,-2.6477,-2.6484,-2.6484,-2.6507,-2.6492,-2.6505,-2.6501,-2.6484,-2.6485,-2.6522,-2.6523,-2.6499,-2.6565,-2.6534,-2.654,-2.6563,-2.6572,-2.658,-2.6578,-2.6463,0,0,0,0,0,-2.6463,-2.6484,-2.6481,-2.6519,-2.6523,-2.6515,-2.6525,-2.6515,-2.6521,-2.6524,-2.6524,-2.6531,-2.6548,-2.656,-2.6576,-2.6622,-2.6622,-2.6643,-2.6651,-2.6657,-2.6662,-2.6685,-2.6695,-2.6594,-2.6594,-2.6594,0,0,-2.6492,-2.6494,-2.6508,-2.6527,-2.6531,-2.6553,-2.6517,-2.6542,-2.6557,-2.6528,-2.656,-2.656,-2.6567,-2.6606,-2.6624,-2.6608,-2.669,-2.6662,-2.6667,-2.6669,-2.6691,-2.67,-2.6709,-2.6597,-2.6597,-2.6596,0,0,-2.6556,-2.656,-2.6591,-2.6596,-2.6603,-2.6598,-2.6605,-2.6607,-2.6606,-2.6638,-2.6616,-2.6635,-2.6666,-2.6671,-2.6678,-2.6744,-2.6727,-2.675,-2.6789,-2.6812,-2.682,-2.6827,-2.685,-2.6858,-2.6755,-2.6755,-2.6755,0,-2.6592,-2.6624,-2.6609,-2.6635,-2.6644,-2.6618,-2.665,-2.6655,-2.6667,-2.6674,-2.6656,-2.6694,-2.6697,-2.6737,-2.6753,-2.676,-2.6768,-2.6749,-2.682,-2.6826,-2.6833,-2.6855,-2.6863,-2.6758,-2.6757,-2.6757,-2.6757,0,-2.6667,-2.6689,-2.6713,-2.6725,-2.6737,-2.6765,-2.6755,-2.6769,-2.6757,-2.6753,-2.6786,-2.6788,-2.6804,-2.6813,-2.6802,-2.6852,-2.6842,-2.6822,-2.6791,-2.6845,-2.6866,-2.6874,-2.6762,-2.6761,-2.676,-2.6759,0,0,-2.6758,-2.6761,-2.6771,-2.6776,-2.6781,-2.6798,-2.6825,-2.6841,-2.6852,-2.6861,-2.6883,-2.691,-2.6892,-2.6899,-2.6889,-2.6909,-2.6961,-2.6887,-2.6887,-2.6901,-2.7015,-2.703,-2.704,-2.6949,-2.6951,-2.6952,-2.7015,0,-2.6821,-2.6867,-2.6855,-2.6902,-2.6922,-2.6897,-2.6921,-2.6927,-2.6924,-2.694,-2.6936,-2.6955,-2.693,-2.6935,-2.6954,-2.6951,-2.6984,-2.6946,-2.697,-2.6971,-2.6968,-2.7051,-2.7066,-2.7125,-2.7023,-2.7024,-2.7025,0,-2.6901,-2.6913,-2.6961,-2.6963,-2.6971,-2.6993,-2.7005,-2.7022,-2.7028,-2.7024,-2.7033,-2.7018,-2.7044,-2.7013,-2.7049,-2.7023,-2.7032,-2.7032,-2.7034,-2.7036,-2.7001,-2.7054,-2.7144,-2.7152,-2.7037,-2.7036,-2.7036,0,-2.6962,-2.699,-2.7023,-2.7028,-2.7031,-2.7046,-2.7048,-2.7053,-2.7063,-2.7074,-2.708,-2.7094,-2.7102,-2.7114,-2.7103,-2.7081,-2.714,-2.7108,-2.7138,-2.7138,-2.7151,-2.7151,-2.7243,-2.7158,-2.7157,-2.7157,-2.7157,0,-2.7034,-2.7064,-2.705,-2.707,-2.7103,-2.7089,-2.7122,-2.7121,-2.7125,-2.7144,-2.7124,-2.7142,-2.7128,-2.7145,-2.7136,-2.7167,-2.7171,-2.7168,-2.7166,-2.717,-2.717,-2.7176,-2.7171,-2.716,-2.7159,-2.7159,-2.7158,0,-2.7107,-2.7099,-2.7133,-2.7133,-2.7134,-2.7158,-2.7158,-2.7177,-2.7172,-2.7196,-2.7201,-2.7194,-2.7213,-2.7203,-2.7223,-2.7217,-2.7257,-2.7249,-2.7255,-2.7253,-2.7283,-2.728,-2.7382,-2.7394,-2.7301,-2.7302,-2.7303,0,-2.7154,-2.7176,-2.7179,-2.719,-2.7194,-2.7212,-2.7222,-2.7209,-2.722,-2.7228,-2.7246,-2.7263,-2.7276,-2.7307,-2.7303,-2.7318,-2.731,-2.7345,-2.7312,-2.7316,-2.731,-2.7309,-2.7311,-2.7351,-2.7352,-2.7353,-2.7354,0,-2.7236,-2.7231,-2.7246,-2.726,-2.7273,-2.7283,-2.7291,-2.7302,-2.7289,-2.7302,-2.7321,-2.7331,-2.7351,-2.7368,-2.7381,-2.7383,-2.7366,-2.7364,-2.7372,-2.7376,-2.7379,-2.7377,-2.7273,-2.7362,-2.7361,-2.7361,-2.736,-2.736,-2.7297,-2.7316,-2.7321,-2.7338,-2.7343,-2.7352,-2.7369,-2.7366,-2.7382,-2.7397,-2.7388,-2.741,-2.7415,-2.7431,-2.7435,-2.7452,-2.7438,-2.7449,-2.7452,-2.7455,-2.7458,-2.7376,-2.7454,-2.7454,-2.7454,-2.7453,-2.7453,0,-2.7379,-2.738,-2.7397,-2.7409,-2.7423,-2.7406,-2.7414,-2.7427,-2.7447,-2.7453,-2.7466,-2.7488,-2.7504,-2.7502,-2.7517,-2.7531,-2.7523,-2.7535,-2.7534,-2.7534,-2.747,-2.7462,-2.7541,-2.7541,-2.7541,-2.754,-2.754,-2.754,-2.7422,-2.7453,-2.7449,-2.7482,-2.7483,-2.7505,-2.7511,-2.7519,-2.7523,-2.7548,-2.7562,-2.756,-2.7563,-2.7578,-2.7592,-2.7591,-2.7597,-2.7611,-2.7607,-2.7547,-2.7539,-2.7531,-2.7523,-2.7613,-2.7613,-2.767,-2.7671,-2.7671]}]]